TIANQI 32

导读

TIANQI 32即天启星座32星,是中国北京国电高科科技有限公司研制的天启卫星系列成员,定位为低轨通信卫星,质量约50千克,运行于近地点843km、远地点855km,倾角44.9°的近地轨道。 它于2024年9月20日由快舟一号甲运载火箭,在西昌卫星发射中心发射升空,随后顺利进入预定轨道,是天启低轨物联网星座组网的重要组成部分,服务于天地互联通信需求。

Basic Information
目录编号:
61198
目录名称:
TIANQI 32
国际标识:
2024-170D
轨道中心:
EARTH
卫星名称:
TIANQI 32
卫星全名:
TIANQI 32
卫星状态:
在轨 (已飞行676 天)
发射日期:
2024-09-20 UTC
国别 :
中国 (CN)
星等 :
--
Orbit Information
数据来源 国际轨道数据 AOE轨道数据
星历时间 2026-07-28T12:37:44+0800
10小时前
查看轨道信息
2026-07-22T15:00:00+0800
6天前
查看轨道信息
半长轴 7279.882km 7279.895km
偏心率 0.0008278 0.0007978
轨道倾角 44.862° 44.862°
近地点辐角 261.724° 237.783°
升交点赤经 314.977° 341.228°
平近点角 98.265° 280.891°
近地点 895.718km 895.95km
远地点 907.772km 907.566km
周期 103.026分钟 103.026分钟
每日圈数 13.977074 13.977038
Detailed Information
使用方式:
暂无
2D Orbit Map
3D Orbit Map
Orbit Altitude Analysis Chart
Orbit Inclination Analysis Chart
Orbit Comprehensive Analysis Chart
View Comprehensive Chart